This demonstration page uses our WeatherBlox Daily Observations layout. Learn more.

Left ArrowRight Arrow

39.08367, -84.50855

Hourly Observations for April 19, 2018

Temp ( °F °C ) Dew Point ( °F °C ) Humidity (%) Winds ( mph kmh ) Pressure ( in mb ) Visibility ( mi km ) Precip ( " mm )
12:53 am 00:53 Cloudy 47 8.3 36 2.2 66 66 W 14 22 29.87 1011 10 16 N/A
1:53 am 01:53 Cloudy 46 7.8 35 1.7 66 66 W 14 22 29.89 1012 10 16 N/A
2:53 am 02:53 Cloudy 44 6.7 32 undefined 63 63 W 20 31 29.91 1013 10 16 N/A
3:53 am 03:53 Cloudy 42 5.6 30 -1.1 62 62 W 14 22 29.92 1013 10 16 N/A
4:53 am 04:53 Cloudy 41 5 29 -1.7 62 62 WNW 14 22 29.95 1014 10 16 N/A
5:53 am 05:53 Cloudy 40 4.4 31 -0.6 70 70 WNW 14 22 29.97 1015 10 16 N/A
6:53 am 06:53 Cloudy 40 4.4 30 -1.1 68 68 WNW 8 13 30.02 1017 10 16 N/A
7:04 am 07:04 Cloudy 39 3.9 30 -1.1 70 70 WNW 6 9 30.03 1017 10 16 N/A
7:37 am 07:37 Cloudy 39 3.9 30 -1.1 70 70 WNW 10 17 30.06 1018 10 16 N/A
7:53 am 07:53 Cloudy 39 3.9 30 -1.1 70 70 W 14 22 30.07 1018 10 16 N/A
8:53 am 08:53 Cloudy 39 3.9 31 -0.6 73 73 WNW 13 20 30.10 1019 10 16 N/A
9:53 am 09:53 Cloudy 40 4.4 34 1.1 79 79 W 10 17 30.14 1021 10 16 N/A
10:53 am 10:53 Cloudy 40 4.4 34 1.1 79 79 NW 7 11 30.19 1023 10 16 N/A
11:42 am 11:42 Cloudy 42 5.6 34 1.1 73 73 NNW 14 22 30.21 1023 10 16 N/A
11:53 am 11:53 Cloudy 42 5.6 33 0.6 71 71 NNW 9 15 30.23 1024 10 16 N/A
12:25 pm 12:25 Cloudy 43 6.1 32 undefined 65 65 N 14 22 30.24 1024 10 16 N/A
12:53 pm 12:53 Cloudy 44 6.7 31 -0.6 60 60 NNW 8 13 30.26 1025 10 16 N/A
1:53 pm 13:53 Cloudy 48 8.9 34 1.1 58 58 N 9 15 30.27 1025 10 16 N/A
2:53 pm 14:53 Mostly Cloudy 49 9.4 33 0.6 55 55 NW 15 24 30.29 1026 10 16 N/A
3:53 pm 15:53 Partly Cloudy 52 11.1 33 0.6 49 49 NNW 16 26 30.28 1026 10 16 N/A
4:53 pm 16:53 Mostly Sunny 53 11.7 32 undefined 45 45 NW 9 15 30.28 1025 10 16 N/A
5:53 pm 17:53 Mostly Sunny 54 12.2 30 -1.1 40 40 N 10 17 30.28 1025 10 16 N/A
6:53 pm 18:53 Sunny 54 12.2 29 -1.7 38 38 NNW 13 20 30.29 1026 10 16 N/A
7:53 pm 19:53 Sunny 53 11.7 28 -2.2 38 38 NW 7 11 30.29 1026 10 16 N/A
8:53 pm 20:53 Clear 51 10.6 28 -2.2 41 41 WNW 5 7 30.30 1026 10 16 N/A
9:53 pm 21:53 Clear 51 10.6 28 -2.2 41 41 NW 3 6 30.32 1027 10 16 N/A
10:53 pm 22:53 Clear 50 10 27 -2.8 41 41 NW 7 11 30.33 1027 10 16 N/A
11:53 pm 23:53 Clear 46 7.8 28 -2.2 50 50 N 6 9 30.35 1028 10 16 N/A

Powered by AerisWeather